Location: Dillon
(41.1766°N, 107.0923°W)
Time: 12:08:43
(UTC+00:00)

AO-92 - Pass Details

Date: 04 July 2022
Orbit: 469 x 481 km, 97.4° (Epoch: 10 August)

Event Time Altitude Azimuth Distance (km) Brightness Sun altitude
Exits shadow 04:15:21 14° 90° (E) 1,409 ? -13.9°
Maximum altitude 04:16:30 16° 67° (ENE) 1,316 ? -14.0°
Drops below altitude 10° 04:18:46 10° 28° (NNE) 1,665 ? -14.3°
Sets 04:21:25 0° 7° (N) 2,553 ? -14.6°
